GFSMW_850_temp_363.txt.gz
Temp
7 8 7 7 7 6 6 5 5 5 5 5 5 4 3 2 1 0 -0 -0 -1 -1 -2 -2 -3 -3 -3 -4 -4 -5 -5 -5 -5 -6 -5 -4 -3 -4 -4 -3 -3 -3 -3
7 7 7 7 6 6 6 5 5 4 5 4 4 3 2 1 0 -0 -1 -1 -2 -2 -3 -3 -3 -4 -4 -4 -5 -5 -5 -6 -6 -6 -6 -6 -5 -4 -4 -3 -4 -3 -3
7 6 6 6 6 6 5 4 4 4 4 3 3 2 1 1 0 -0 -1 -2 -3 -3 -3 -4 -4 -4 -4 -5 -5 -5 -6 -6 -6 -7 -7 -7 -7 -7 -6 -5 -5 -5 -4
6 6 6 6 6 5 4 4 4 4 4 2 1 1 -0 -1 -2 -2 -2 -2 -3 -3 -3 -4 -4 -4 -5 -5 -6 -6 -6 -6 -6 -7 -7 -7 -8 -8 -8 -7 -6 -6 -5
5 6 5 6 5 4 4 4 4 3 2 1 0 -1 -1 -2 -2 -2 -3 -3 -3 -3 -4 -4 -5 -5 -5 -6 -6 -6 -6 -7 -7 -7 -8 -8 -8 -9 -9 -8 -8 -7 -6
6 5 6 5 4 4 4 4 3 2 0 -0 -1 -1 -2 -2 -2 -3 -3 -3 -4 -4 -4 -4 -5 -5 -5 -6 -6 -6 -7 -7 -7 -7 -8 -8 -8 -8 -9 -9 -8 -8 -7
6 6 5 5 4 4 4 3 2 1 -0 -1 -1 -1 -2 -2 -3 -3 -4 -4 -4 -4 -5 -5 -5 -5 -5 -6 -6 -6 -7 -7 -7 -8 -8 -7 -7 -9 -9 -9 -9 -8 -8
6 6 5 4 4 4 3 2 1 0 -0 -1 -1 -2 -2 -3 -3 -4 -4 -4 -5 -5 -5 -5 -5 -5 -5 -6 -6 -6 -7 -7 -8 -8 -8 -8 -8 -9 -9 -9 -9 -8 -8
6 5 4 4 4 3 2 1 0 -0 -1 -1 -2 -2 -3 -3 -4 -4 -4 -5 -5 -5 -5 -5 -5 -5 -5 -6 -6 -6 -7 -8 -8 -8 -7 -9 -9 -9 -9 -9 -9 -8 -8
5 4 5 4 3 2 1 0 0 -0 -1 -1 -2 -2 -3 -4 -4 -4 -5 -5 -5 -5 -5 -5 -5 -5 -5 -6 -6 -7 -8 -8 -7 -8 -9 -9 -9 -9 -9 -9 -8 -8 -8
5 5 4 3 2 2 0 0 0 -0 -1 -2 -2 -3 -3 -4 -4 -5 -5 -5 -5 -5 -5 -5 -5 -6 -6 -6 -7 -8 -8 -8 -8 -9 -9 -9 -9 -9 -8 -8 -8 -8 -8
5 4 3 3 2 1 0 0 -0 -1 -2 -2 -3 -3 -4 -4 -4 -5 -5 -5 -5 -5 -5 -6 -6 -6 -7 -7 -8 -8 -8 -9 -9 -10 -9 -9 -9 -9 -9 -8 -8 -8 -8
4 3 3 2 2 0 1 0 -1 -1 -2 -2 -3 -3 -4 -4 -5 -5 -5 -5 -5 -5 -6 -6 -6 -7 -7 -7 -8 -9 -10 -10 -10 -10 -10 -10 -9 -9 -9 -8 -8 -8 -8
4 3 2 2 1 1 0 -0 -1 -1 -2 -3 -3 -4 -4 -5 -5 -5 -4 -4 -5 -5 -5 -6 -6 -7 -7 -8 -10 -10 -10 -10 -10 -9 -9 -9 -9 -9 -9 -9 -8 -8 -8
3 3 2 1 0 0 -0 -1 -1 -2 -2 -3 -3 -4 -4 -5 -5 -5 -4 -5 -5 -5 -6 -6 -6 -7 -7 -9 -11 -10 -10 -10 -9 -9 -9 -9 -9 -9 -9 -9 -8 -8 -9
3 2 2 1 0 -0 -0 -1 -1 -2 -2 -3 -4 -4 -4 -5 -5 -5 -5 -5 -5 -5 -6 -6 -7 -7 -7 -9 -10 -10 -10 -9 -9 -9 -9 -9 -9 -8 -8 -8 -8 -8 -8
3 2 1 0 0 -0 -1 -1 -2 -2 -2 -3 -4 -4 -4 -5 -5 -5 -5 -5 -6 -6 -6 -6 -6 -7 -7 -10 -10 -10 -9 -9 -9 -10 -9 -9 -9 -8 -8 -8 -7 -7 -7
2 1 0 0 -0 -1 -1 -2 -2 -2 -3 -4 -4 -4 -4 -5 -5 -5 -5 -6 -6 -6 -7 -6 -7 -7 -8 -10 -10 -10 -9 -9 -9 -9 -9 -9 -9 -8 -8 -8 -7 -7 -7
1 1 1 -0 -1 -1 -1 -2 -2 -3 -3 -4 -4 -4 -4 -5 -5 -5 -6 -6 -6 -6 -6 -6 -7 -7 -8 -11 -10 -11 -9 -9 -9 -9 -9 -9 -9 -9 -8 -8 -7 -6 -6
1 1 0 -0 -1 -1 -2 -2 -2 -3 -4 -4 -4 -4 -4 -5 -5 -6 -6 -6 -6 -6 -6 -6 -7 -7 -8 -9 -11 -11 -10 -9 -9 -9 -9 -9 -9 -8 -8 -8 -7 -7 -6
1 0 -0 -1 -1 -2 -2 -2 -3 -3 -4 -4 -4 -4 -5 -5 -5 -6 -6 -6 -6 -5 -5 -6 -7 -7 -8 -8 -8 -10 -10 -10 -9 -9 -9 -9 -9 -8 -8 -8 -7 -7 -7
0 0 0 -1 -2 -2 -2 -2 -3 -4 -4 -4 -4 -4 -5 -5 -5 -6 -6 -6 -5 -5 -6 -6 -6 -7 -7 -8 -8 -8 -9 -9 -9 -9 -9 -9 -8 -8 -8 -8 -7 -7 -7
0 -0 -0 -1 -2 -2 -3 -3 -3 -4 -4 -4 -4 -4 -5 -5 -5 -5 -6 -6 -6 -6 -7 -7 -7 -7 -8 -7 -8 -8 -8 -9 -8 -9 -8 -8 -8 -8 -7 -7 -7 -7 -7
0 -0 -1 -1 -2 -3 -3 -3 -4 -4 -3 -4 -4 -4 -5 -5 -5 -5 -6 -7 -7 -7 -8 -8 -8 -8 -8 -8 -9 -9 -8 -9 -8 -8 -8 -8 -8 -8 -8 -7 -7 -7 -7
-0 -1 -1 -1 -2 -3 -3 -3 -3 -3 -3 -4 -4 -4 -5 -5 -5 -6 -6 -7 -8 -10 -10 -9 -9 -9 -9 -10 -9 -9 -9 -8 -8 -8 -8 -8 -7 -8 -8 -7 -8 -7 -7
-0 -1 -1 -2 -2 -3 -3 -3 -4 -4 -4 -4 -4 -5 -5 -5 -5 -5 -6 -7 -7 -8 -8 -8 -8 -8 -8 -7 -7 -7 -8 -7 -7 -8 -8 -9 -9 -9 -9 -9 -8 -8 -8

GFSMW_850_temp_366.txt.gz
Temp
6 6 6 6 6 6 5 5 4 4 4 4 3 2 1 1 0 -0 -1 -1 -2 -2 -3 -3 -3 -3 -4 -4 -4 -5 -5 -5 -6 -6 -5 -4 -4 -4 -5 -4 -4 -3 -3
6 6 6 5 6 5 5 4 4 4 3 3 2 1 1 1 -0 -1 -1 -2 -2 -3 -3 -3 -4 -4 -4 -4 -5 -5 -6 -6 -6 -7 -6 -7 -5 -5 -4 -4 -4 -4 -4
6 6 5 6 5 4 4 4 3 2 2 1 1 1 1 0 -0 -1 -2 -3 -3 -3 -3 -4 -4 -5 -5 -5 -5 -6 -6 -7 -7 -7 -7 -8 -8 -8 -7 -5 -5 -5 -5
5 5 6 5 4 5 4 2 2 2 1 1 1 0 -1 -1 -2 -2 -2 -3 -3 -3 -3 -4 -4 -5 -5 -5 -6 -6 -7 -7 -7 -7 -7 -8 -8 -9 -8 -7 -7 -7 -6
6 5 5 5 5 3 3 2 2 2 1 1 -0 -1 -1 -2 -2 -3 -3 -3 -3 -4 -4 -5 -5 -5 -5 -6 -6 -6 -6 -7 -7 -7 -8 -8 -8 -8 -9 -10 -7 -8 -7
5 5 5 4 3 3 2 2 2 1 0 -0 -1 -1 -2 -2 -2 -2 -3 -3 -4 -4 -4 -5 -5 -5 -5 -5 -6 -6 -6 -7 -7 -7 -8 -8 -9 -9 -9 -10 -10 -9 -8
5 5 4 3 3 3 2 2 1 1 -0 -1 -2 -2 -2 -3 -3 -4 -4 -4 -5 -5 -5 -5 -5 -5 -5 -5 -6 -6 -6 -7 -7 -8 -8 -8 -8 -9 -10 -10 -10 -10 -9
4 4 4 3 3 3 2 2 1 -0 -1 -1 -2 -2 -3 -3 -4 -4 -5 -5 -5 -5 -5 -5 -5 -5 -5 -5 -6 -6 -7 -7 -8 -8 -8 -8 -9 -9 -9 -10 -10 -9 -9
4 4 4 3 3 2 2 1 0 -0 -1 -2 -2 -2 -3 -4 -4 -5 -5 -5 -5 -5 -5 -5 -5 -5 -6 -6 -6 -7 -7 -8 -8 -8 -9 -9 -9 -10 -9 -9 -9 -9 -9
4 4 3 2 2 2 1 0 -0 -1 -1 -2 -2 -3 -4 -4 -4 -4 -4 -5 -5 -5 -5 -5 -6 -6 -6 -7 -7 -8 -8 -8 -9 -9 -10 -10 -10 -10 -9 -9 -9 -9 -9
4 3 2 2 2 1 1 0 -0 -1 -2 -2 -3 -3 -4 -4 -4 -4 -4 -4 -4 -5 -5 -5 -6 -6 -6 -7 -7 -8 -9 -10 -10 -10 -10 -10 -10 -10 -9 -9 -9 -9 -9
4 3 2 2 1 1 0 1 -1 -1 -2 -3 -3 -3 -4 -4 -4 -4 -4 -4 -4 -5 -5 -5 -6 -6 -6 -7 -8 -9 -10 -10 -10 -10 -10 -10 -10 -10 -9 -9 -9 -9 -8
3 2 2 2 1 1 -0 -0 -1 -2 -2 -3 -3 -3 -4 -4 -4 -4 -4 -5 -5 -5 -5 -6 -6 -6 -7 -7 -9 -10 -10 -10 -10 -10 -10 -10 -10 -9 -9 -9 -9 -9 -9
3 2 2 1 1 0 -0 -1 -1 -2 -2 -3 -3 -4 -4 -4 -5 -5 -5 -5 -5 -5 -6 -6 -6 -7 -7 -8 -10 -10 -10 -10 -10 -10 -10 -10 -9 -9 -9 -9 -9 -9 -9
2 2 2 1 0 0 -0 -1 -1 -2 -3 -3 -3 -4 -4 -4 -5 -5 -5 -5 -5 -6 -6 -6 -6 -7 -7 -9 -10 -10 -10 -10 -9 -9 -9 -10 -9 -9 -9 -9 -9 -9 -9
2 2 1 1 0 -0 -1 -1 -2 -2 -3 -3 -3 -4 -4 -4 -5 -5 -5 -5 -5 -6 -6 -6 -6 -7 -7 -10 -10 -10 -10 -9 -9 -10 -10 -9 -9 -9 -9 -8 -8 -8 -8
2 2 1 1 -0 -1 -1 -2 -2 -3 -3 -3 -4 -4 -4 -4 -5 -5 -5 -6 -6 -6 -6 -6 -6 -7 -8 -11 -10 -10 -10 -9 -10 -10 -10 -9 -9 -9 -9 -8 -8 -7 -7
2 2 1 0 -1 -1 -2 -2 -2 -3 -3 -3 -4 -4 -4 -4 -5 -5 -5 -6 -6 -6 -6 -6 -7 -7 -9 -12 -11 -11 -9 -9 -9 -9 -10 -10 -10 -9 -10 -9 -8 -7 -7
2 1 0 -0 -1 -2 -2 -2 -3 -3 -3 -3 -4 -4 -4 -4 -5 -5 -5 -6 -6 -6 -6 -7 -7 -8 -8 -11 -11 -11 -10 -10 -9 -9 -9 -10 -10 -10 -9 -8 -8 -7 -7
1 1 -0 -1 -2 -2 -2 -3 -3 -3 -3 -4 -4 -4 -4 -4 -5 -5 -6 -6 -6 -6 -6 -6 -7 -8 -8 -8 -11 -12 -10 -10 -10 -9 -9 -9 -10 -10 -9 -9 -8 -8 -7
1 0 -1 -1 -2 -2 -3 -2 -3 -3 -4 -4 -4 -4 -4 -5 -5 -5 -6 -5 -5 -5 -6 -6 -7 -7 -8 -8 -9 -10 -11 -12 -10 -10 -9 -9 -10 -9 -9 -9 -9 -8 -8
0 -0 -0 -1 -2 -2 -3 -3 -3 -4 -4 -4 -4 -4 -4 -5 -5 -5 -5 -5 -4 -5 -5 -6 -6 -7 -8 -8 -8 -9 -9 -10 -9 -10 -10 -10 -9 -9 -9 -8 -8 -8 -7
0 -0 -1 -1 -2 -3 -3 -3 -3 -4 -4 -4 -4 -4 -5 -5 -5 -5 -6 -5 -5 -6 -7 -7 -7 -8 -8 -8 -8 -8 -9 -9 -9 -9 -9 -9 -8 -8 -8 -8 -8 -8 -8
0 -1 -1 -2 -2 -3 -3 -3 -3 -4 -4 -4 -4 -4 -4 -5 -5 -6 -6 -6 -6 -7 -8 -8 -10 -9 -9 -9 -10 -9 -8 -8 -9 -8 -8 -9 -9 -9 -8 -8 -8 -8 -8
-0 -1 -1 -2 -2 -3 -3 -3 -3 -4 -4 -4 -4 -4 -4 -5 -5 -6 -6 -7 -8 -9 -10 -10 -10 -10 -10 -10 -8 -8 -8 -7 -7 -9 -8 -8 -8 -8 -8 -8 -8 -8 -8
-0 -1 -1 -2 -2 -3 -3 -4 -4 -4 -4 -4 -4 -4 -4 -5 -5 -5 -6 -7 -7 -8 -8 -8 -8 -8 -8 -7 -7 -7 -7 -6 -7 -8 -8 -9 -10 -10 -10 -10 -9 -9 -9

GFSMW_850_temp_369.txt.gz
Temp
5 5 5 6 6 5 5 4 4 4 3 3 2 1 1 0 -0 -1 -1 -2 -2 -2 -3 -3 -4 -4 -5 -5 -5 -6 -6 -5 -6 -5 -5 -5 -5 -5 -5 -5 -4 -4 -4
4 5 5 5 5 5 4 4 3 3 2 2 1 0 0 -0 -1 -1 -2 -2 -2 -3 -3 -3 -4 -4 -5 -5 -6 -6 -6 -6 -6 -6 -5 -4 -4 -5 -6 -6 -5 -5 -4
5 5 5 5 5 4 3 3 2 2 1 1 0 0 -0 -2 -2 -1 -2 -2 -3 -3 -4 -4 -5 -5 -5 -6 -6 -6 -6 -6 -6 -7 -7 -6 -5 -6 -5 -6 -6 -6 -6
5 5 5 5 4 3 3 2 1 1 0 -0 -0 -1 -1 -2 -2 -2 -2 -3 -3 -4 -4 -5 -5 -5 -5 -5 -6 -6 -6 -7 -6 -6 -6 -7 -7 -7 -7 -6 -6 -7 -7
5 5 5 4 4 3 2 1 1 0 -0 -0 -1 -1 -1 -2 -2 -3 -3 -3 -3 -4 -4 -5 -5 -5 -5 -5 -5 -6 -6 -7 -7 -7 -7 -7 -7 -7 -7 -8 -7 -7 -7
4 5 4 4 3 3 2 1 1 0 -0 -1 -1 -1 -2 -3 -3 -3 -3 -4 -4 -4 -4 -5 -5 -5 -5 -5 -5 -5 -6 -6 -7 -7 -8 -8 -8 -8 -8 -8 -8 -8 -7
5 5 4 3 3 2 1 1 1 0 -0 -1 -1 -2 -2 -3 -3 -4 -4 -4 -5 -5 -5 -5 -5 -5 -5 -5 -6 -6 -6 -7 -8 -8 -9 -9 -9 -9 -10 -10 -9 -8 -8
5 4 4 3 2 1 1 0 0 -0 -1 -2 -2 -2 -3 -3 -4 -4 -4 -4 -4 -4 -4 -5 -5 -5 -6 -6 -6 -7 -7 -8 -9 -9 -10 -10 -10 -10 -10 -10 -10 -8 -7
4 4 3 2 1 1 1 1 0 -0 -1 -2 -2 -2 -3 -3 -4 -4 -4 -4 -4 -4 -5 -5 -5 -5 -6 -6 -7 -8 -9 -9 -10 -10 -10 -10 -10 -10 -10 -10 -9 -9 -8
4 3 3 2 1 1 1 0 -0 -1 -1 -2 -2 -3 -3 -4 -4 -4 -4 -4 -4 -4 -5 -5 -5 -6 -6 -6 -7 -9 -10 -10 -10 -10 -10 -10 -10 -10 -10 -10 -9 -9 -9
3 3 2 2 1 1 1 -0 -0 -1 -2 -2 -3 -3 -4 -4 -4 -4 -4 -4 -5 -5 -5 -6 -6 -6 -6 -7 -9 -10 -10 -10 -10 -10 -10 -10 -10 -10 -10 -10 -9 -9 -9
3 3 2 2 1 1 0 -0 -1 -1 -2 -2 -3 -3 -3 -4 -4 -4 -4 -5 -5 -5 -6 -6 -6 -6 -7 -8 -10 -10 -10 -10 -10 -10 -10 -10 -10 -10 -10 -10 -9 -9 -9
3 3 2 1 1 0 -0 -0 -1 -2 -2 -3 -3 -3 -3 -4 -4 -5 -5 -5 -5 -5 -6 -6 -7 -7 -7 -9 -10 -10 -9 -9 -10 -10 -10 -10 -10 -10 -9 -9 -9 -9 -8
3 2 1 1 0 0 -0 -1 -1 -2 -2 -3 -3 -3 -4 -4 -4 -5 -5 -5 -5 -5 -6 -6 -7 -7 -8 -11 -10 -10 -10 -10 -10 -9 -10 -10 -10 -10 -9 -9 -9 -9 -9
2 1 0 0 0 -0 -1 -1 -2 -2 -2 -3 -3 -3 -4 -4 -5 -5 -5 -5 -5 -6 -6 -6 -6 -7 -11 -11 -10 -10 -10 -10 -11 -11 -10 -10 -10 -10 -9 -9 -9 -8 -8
1 1 1 1 0 -1 -1 -2 -2 -2 -3 -3 -3 -4 -4 -4 -5 -5 -5 -5 -5 -5 -6 -6 -7 -9 -11 -11 -11 -11 -11 -11 -11 -11 -10 -10 -10 -10 -9 -9 -9 -9 -8
1 1 1 0 -0 -1 -1 -2 -2 -3 -3 -3 -3 -3 -4 -4 -5 -5 -5 -5 -5 -6 -6 -6 -7 -10 -11 -12 -11 -11 -11 -11 -11 -11 -11 -11 -11 -10 -10 -10 -9 -9 -8
2 1 1 -0 -1 -1 -2 -2 -3 -3 -3 -3 -3 -3 -4 -4 -5 -5 -5 -5 -5 -6 -6 -7 -8 -10 -10 -12 -11 -11 -11 -11 -11 -11 -11 -11 -11 -11 -10 -10 -9 -8 -8
2 1 0 -0 -1 -2 -2 -3 -3 -3 -3 -3 -4 -4 -4 -4 -5 -5 -5 -5 -5 -6 -7 -8 -8 -8 -9 -9 -11 -11 -11 -11 -11 -11 -11 -11 -11 -11 -11 -10 -9 -8 -8
1 1 -0 -1 -2 -2 -2 -3 -3 -3 -3 -4 -4 -4 -4 -5 -5 -5 -6 -5 -5 -6 -7 -8 -8 -7 -8 -8 -11 -11 -11 -12 -11 -12 -12 -12 -12 -11 -10 -10 -10 -9 -8
1 0 -1 -1 -1 -2 -2 -2 -3 -3 -3 -4 -4 -4 -4 -4 -5 -5 -5 -5 -5 -6 -7 -7 -7 -7 -8 -8 -9 -12 -11 -12 -12 -12 -12 -11 -11 -11 -10 -10 -10 -10 -9
0 -1 -1 -1 -2 -2 -2 -2 -2 -3 -3 -4 -4 -4 -4 -4 -5 -5 -5 -6 -5 -5 -6 -6 -6 -7 -7 -8 -8 -12 -11 -10 -11 -11 -12 -11 -10 -10 -10 -10 -10 -9 -8
-0 -1 -1 -1 -2 -2 -2 -2 -3 -3 -3 -3 -3 -4 -4 -4 -5 -5 -6 -7 -7 -7 -7 -7 -8 -7 -8 -9 -8 -8 -8 -9 -10 -10 -10 -10 -10 -10 -10 -10 -10 -9 -9
-0 -0 -1 -1 -2 -2 -2 -2 -3 -3 -3 -3 -3 -4 -4 -4 -5 -6 -7 -8 -7 -7 -9 -10 -10 -10 -10 -10 -8 -8 -7 -6 -7 -9 -10 -10 -11 -11 -11 -10 -10 -10 -10
-0 -1 -1 -1 -2 -2 -2 -3 -3 -3 -3 -3 -3 -3 -4 -4 -5 -7 -7 -7 -8 -8 -9 -10 -11 -10 -9 -10 -9 -8 -7 -7 -8 -9 -9 -9 -10 -11 -11 -11 -11 -10 -10
-0 -1 -1 -2 -2 -2 -2 -3 -3 -3 -3 -3 -3 -3 -3 -4 -4 -5 -7 -7 -7 -7 -7 -7 -7 -7 -7 -7 -6 -6 -6 -6 -7 -9 -11 -11 -12 -12 -13 -13 -12 -11 -11

GFSMW_850_temp_375.txt.gz
Temp
4 4 5 5 5 5 5 5 4 3 4 4 4 3 3 3 2 2 1 -0 -1 -1 -1 -1 -1 -1 -1 -1 -1 -1 -1 -1 -1 -1 -0 0 1 1 0 -0 -0 -1 -1
3 4 5 4 5 6 5 5 4 3 3 3 3 2 3 3 2 2 1 0 -1 -1 -1 -2 -2 -2 -2 -2 -1 -2 -1 -1 -1 -1 -1 -1 -0 1 -0 -1 -1 -1 -1
5 4 5 5 6 6 5 4 4 3 2 1 2 2 2 2 2 1 1 -0 -1 -1 -2 -2 -2 -2 -2 -2 -2 -2 -2 -2 -2 -1 -1 -2 -2 -2 -2 -2 -2 -2 -2
5 5 6 7 6 5 4 4 3 2 2 1 1 1 1 1 1 1 0 -0 -1 -1 -1 -2 -3 -3 -3 -3 -2 -2 -3 -2 -2 -2 -2 -2 -2 -3 -3 -3 -2 -2 -2
5 5 8 7 7 6 4 3 3 2 1 1 0 0 0 0 0 -0 -0 -0 -1 -1 -2 -3 -3 -3 -3 -3 -3 -3 -3 -3 -3 -3 -3 -3 -3 -3 -4 -4 -4 -3 -3
5 7 7 7 6 5 4 3 3 2 1 1 0 -0 -1 -1 -0 -1 -1 -1 -1 -2 -2 -4 -4 -4 -4 -4 -4 -4 -4 -4 -4 -4 -4 -4 -5 -5 -5 -6 -5 -5 -4
6 8 8 7 5 5 4 4 3 2 1 1 0 -0 -1 -1 -1 -1 -2 -2 -2 -2 -3 -4 -4 -4 -5 -5 -5 -5 -5 -4 -5 -5 -6 -6 -6 -6 -7 -7 -6 -6 -6
7 9 8 6 5 4 4 3 3 2 1 1 -0 -0 -1 -1 -1 -2 -2 -2 -3 -3 -4 -5 -5 -5 -5 -5 -5 -5 -5 -5 -6 -7 -7 -7 -7 -7 -8 -8 -8 -7 -6
9 8 6 6 5 5 3 2 2 2 1 0 -0 -1 -1 -2 -2 -2 -3 -3 -3 -4 -4 -5 -5 -5 -5 -6 -6 -6 -5 -6 -7 -7 -7 -7 -7 -8 -8 -8 -8 -8 -7
9 8 6 6 5 4 4 2 2 2 1 0 -0 -1 -1 -2 -2 -2 -3 -3 -4 -4 -4 -5 -5 -5 -5 -6 -6 -6 -6 -7 -7 -7 -7 -7 -7 -8 -8 -8 -8 -8 -8
9 8 7 6 5 4 3 2 2 1 0 -0 -1 -1 -1 -2 -2 -2 -3 -3 -4 -4 -4 -5 -5 -5 -6 -6 -6 -6 -7 -8 -8 -8 -7 -8 -8 -8 -8 -8 -8 -8 -8
9 7 7 6 5 4 3 3 1 1 0 -0 -0 -1 -1 -2 -2 -2 -3 -3 -4 -4 -4 -5 -5 -5 -6 -6 -7 -7 -8 -8 -8 -8 -8 -8 -8 -8 -8 -8 -8 -8 -7
8 7 6 5 4 4 3 2 1 0 0 -0 -0 -1 -2 -2 -2 -3 -3 -3 -4 -4 -5 -5 -5 -5 -6 -6 -8 -8 -9 -9 -9 -8 -8 -8 -8 -8 -8 -8 -8 -8 -7
8 7 5 4 4 3 2 2 1 0 -0 -0 -0 -1 -2 -2 -2 -3 -3 -4 -4 -4 -5 -5 -5 -5 -6 -6 -9 -9 -9 -9 -8 -8 -8 -8 -8 -8 -8 -8 -8 -8 -7
8 7 6 5 4 3 2 1 1 0 -0 -0 -1 -1 -2 -2 -3 -3 -4 -4 -4 -5 -5 -5 -5 -5 -6 -7 -8 -10 -10 -9 -8 -8 -8 -8 -9 -9 -9 -9 -9 -8 -8
8 6 5 4 3 2 2 1 1 -0 -0 -1 -1 -2 -2 -2 -3 -3 -4 -4 -4 -4 -5 -5 -5 -6 -6 -7 -8 -10 -9 -9 -9 -9 -9 -9 -9 -9 -9 -9 -9 -9 -9
7 6 4 3 2 2 1 1 0 -0 -1 -1 -1 -2 -2 -3 -3 -3 -4 -4 -4 -4 -5 -5 -5 -6 -6 -7 -8 -9 -9 -9 -9 -10 -9 -10 -10 -10 -10 -10 -10 -10 -9
6 5 3 2 2 1 1 1 0 -0 -1 -1 -2 -2 -3 -3 -4 -4 -4 -4 -4 -4 -5 -5 -5 -6 -6 -7 -8 -8 -9 -10 -10 -10 -10 -10 -11 -11 -11 -11 -11 -10 -9
5 4 3 2 1 1 1 0 0 -0 -1 -2 -2 -3 -3 -4 -4 -4 -4 -4 -4 -4 -4 -5 -5 -6 -6 -7 -8 -9 -9 -9 -10 -10 -10 -10 -11 -11 -11 -11 -11 -10 -9
4 3 2 2 1 0 0 -0 -1 -1 -2 -2 -3 -3 -4 -4 -4 -4 -4 -5 -4 -4 -5 -5 -5 -6 -6 -7 -8 -10 -10 -10 -10 -10 -10 -10 -11 -11 -11 -11 -11 -10 -10
3 2 2 1 1 0 0 -0 -1 -2 -2 -3 -3 -4 -4 -4 -5 -5 -5 -5 -5 -5 -5 -5 -5 -6 -7 -8 -8 -11 -11 -11 -11 -11 -10 -10 -10 -11 -11 -11 -11 -11 -10
3 2 2 1 0 -0 -0 -1 -2 -3 -3 -3 -3 -4 -4 -4 -5 -5 -5 -5 -5 -5 -6 -6 -6 -6 -8 -7 -7 -9 -10 -10 -11 -11 -11 -11 -11 -11 -11 -11 -11 -11 -10
3 2 1 0 -0 -1 -1 -2 -3 -3 -3 -3 -4 -4 -5 -4 -5 -5 -5 -6 -6 -6 -7 -6 -6 -6 -7 -6 -7 -8 -9 -8 -9 -11 -11 -12 -12 -11 -11 -11 -11 -10 -10
3 2 1 0 -1 -1 -2 -2 -2 -3 -3 -3 -3 -4 -4 -4 -4 -5 -6 -6 -5 -6 -6 -6 -8 -8 -8 -8 -9 -9 -9 -8 -9 -11 -11 -12 -12 -12 -12 -11 -11 -11 -10
2 2 1 -0 -1 -1 -1 -2 -3 -3 -2 -3 -3 -3 -4 -4 -4 -4 -5 -5 -6 -6 -6 -7 -9 -9 -9 -9 -9 -10 -10 -10 -10 -11 -12 -12 -13 -12 -12 -12 -11 -11 -10
2 1 -0 0 -1 -0 -1 -3 -3 -3 -3 -3 -3 -3 -3 -4 -4 -4 -4 -5 -5 -6 -6 -6 -7 -7 -8 -7 -6 -6 -8 -8 -10 -11 -12 -13 -13 -13 -13 -13 -12 -12 -11

GFSMW_850_temp_381.txt.gz
Temp
5 6 6 6 5 5 5 4 4 3 3 3 2 2 2 2 2 1 1 1 0 -0 -1 -1 -2 -2 -2 -3 -3 -3 -3 -3 -3 -3 -3 -3 -2 -2 -2 -2 -1 -1 -2
5 6 6 6 5 6 5 4 3 3 2 2 1 1 1 1 1 1 0 -0 -1 -1 -1 -1 -2 -2 -3 -4 -4 -4 -4 -4 -4 -4 -4 -4 -4 -3 -3 -2 -2 -3 -3
5 6 6 6 6 6 5 4 3 3 2 1 1 1 1 1 0 -0 -0 -1 -1 -2 -2 -2 -2 -3 -4 -4 -4 -4 -5 -5 -5 -4 -5 -5 -5 -5 -4 -3 -3 -3 -3
5 6 6 6 6 5 4 4 3 3 2 1 0 -0 -0 -1 -1 -1 -1 -2 -2 -2 -3 -3 -3 -4 -5 -5 -5 -5 -5 -5 -5 -5 -5 -5 -5 -6 -6 -5 -5 -5 -4
6 7 7 6 6 5 4 4 3 3 2 1 0 -0 -1 -1 -1 -1 -1 -2 -2 -3 -3 -4 -4 -4 -5 -5 -5 -5 -6 -6 -6 -6 -6 -6 -6 -6 -6 -6 -6 -5 -5
7 7 6 7 6 5 4 3 3 2 2 1 0 -0 -1 -1 -1 -2 -2 -2 -3 -3 -3 -4 -4 -5 -5 -5 -5 -6 -6 -6 -6 -6 -7 -7 -7 -7 -7 -7 -7 -6 -6
7 7 7 7 6 5 4 4 3 2 2 1 -0 -1 -1 -1 -2 -2 -2 -2 -3 -3 -4 -4 -4 -5 -5 -5 -5 -5 -6 -6 -6 -7 -7 -7 -7 -7 -7 -7 -7 -7 -7
8 7 8 7 6 5 4 3 2 2 1 0 -0 -1 -1 -1 -2 -2 -2 -3 -3 -4 -4 -4 -4 -5 -5 -5 -5 -6 -6 -6 -6 -7 -8 -8 -8 -7 -7 -7 -7 -7 -7
7 7 8 6 5 5 4 3 2 1 1 0 -0 -1 -1 -2 -2 -2 -2 -3 -3 -4 -4 -4 -4 -5 -5 -5 -5 -6 -6 -6 -7 -8 -9 -9 -8 -8 -7 -7 -7 -7 -8
7 8 7 6 5 4 3 3 2 1 0 0 -0 -0 -1 -2 -2 -2 -3 -3 -4 -4 -4 -4 -5 -5 -5 -5 -6 -6 -6 -7 -8 -9 -9 -9 -8 -8 -8 -7 -7 -7 -8
8 8 7 6 5 4 3 2 1 1 0 0 -0 -1 -1 -2 -2 -3 -3 -4 -4 -4 -4 -4 -5 -5 -5 -6 -6 -6 -6 -7 -8 -8 -8 -8 -8 -8 -8 -8 -8 -8 -8
8 7 6 5 4 4 3 2 1 0 0 -0 -0 -1 -2 -2 -2 -3 -3 -4 -4 -4 -4 -4 -5 -5 -5 -6 -6 -6 -7 -7 -8 -8 -9 -9 -8 -8 -8 -8 -8 -8 -8
8 6 5 5 4 3 2 1 1 0 -0 -0 -1 -1 -2 -2 -3 -3 -3 -4 -4 -4 -4 -5 -5 -5 -5 -6 -6 -7 -7 -8 -9 -9 -9 -9 -9 -9 -8 -8 -8 -8 -8
7 6 5 4 3 3 2 1 1 0 -0 -1 -1 -2 -2 -3 -3 -3 -4 -4 -4 -4 -5 -5 -5 -5 -6 -6 -7 -9 -9 -9 -10 -9 -9 -10 -10 -9 -9 -8 -8 -8 -8
7 6 4 4 3 2 2 1 0 -0 -0 -1 -2 -2 -2 -3 -3 -3 -3 -3 -4 -4 -5 -5 -5 -6 -7 -8 -8 -10 -9 -10 -10 -11 -10 -10 -9 -9 -10 -10 -9 -9 -9
6 5 4 3 2 2 1 1 0 -0 -1 -1 -2 -2 -3 -3 -3 -3 -3 -3 -4 -4 -4 -5 -6 -6 -7 -9 -9 -11 -9 -10 -11 -11 -11 -10 -10 -10 -10 -10 -10 -10 -10
6 5 4 3 2 1 1 1 0 -0 -1 -2 -2 -2 -3 -2 -2 -2 -2 -2 -3 -3 -3 -4 -5 -5 -6 -8 -7 -7 -9 -10 -11 -11 -10 -10 -11 -11 -10 -10 -10 -10 -10
6 4 3 2 2 1 1 1 -0 -1 -1 -2 -2 -2 -3 -2 -2 -2 -2 -2 -3 -3 -3 -3 -4 -5 -5 -6 -8 -10 -11 -11 -11 -10 -11 -11 -11 -11 -10 -10 -11 -11 -11
5 4 3 2 1 1 1 0 -0 -1 -1 -2 -2 -2 -2 -2 -2 -2 -2 -2 -3 -3 -4 -4 -5 -5 -6 -8 -10 -11 -11 -12 -11 -11 -12 -12 -12 -11 -10 -10 -11 -11 -11
4 3 2 2 1 1 1 0 -1 -1 -1 -2 -2 -2 -2 -2 -2 -2 -3 -3 -3 -3 -3 -4 -4 -5 -5 -7 -10 -11 -12 -12 -12 -12 -12 -12 -12 -11 -11 -10 -10 -10 -10
3 2 2 2 1 0 1 0 -0 -1 -1 -1 -2 -1 -2 -2 -2 -2 -3 -3 -3 -3 -3 -4 -4 -4 -5 -6 -8 -11 -12 -12 -12 -12 -13 -12 -12 -12 -11 -10 -10 -10 -10
3 2 2 1 0 1 1 1 -0 -1 -1 -1 -2 -2 -2 -2 -2 -3 -3 -3 -3 -3 -3 -3 -4 -4 -5 -6 -8 -10 -12 -12 -13 -13 -13 -13 -13 -12 -11 -11 -10 -10 -9
3 2 2 1 1 1 1 1 -0 -1 -1 -2 -2 -2 -3 -3 -3 -3 -3 -3 -4 -5 -5 -5 -5 -6 -7 -8 -8 -9 -10 -11 -12 -13 -14 -14 -13 -12 -11 -11 -10 -9 -9
2 2 2 2 2 1 1 1 -1 -1 -1 -1 -3 -3 -3 -3 -3 -3 -3 -4 -4 -5 -6 -6 -7 -7 -8 -9 -8 -9 -10 -11 -11 -13 -14 -14 -13 -13 -12 -10 -10 -9 -9
3 3 3 2 2 1 1 1 -1 -1 -0 -1 -1 -2 -2 -2 -3 -3 -3 -4 -5 -5 -6 -7 -7 -7 -8 -7 -7 -8 -10 -11 -11 -13 -14 -14 -14 -12 -11 -11 -10 -9 -8
3 3 3 3 2 1 1 1 1 0 0 -0 -1 -1 -1 -2 -2 -2 -2 -4 -4 -5 -5 -6 -6 -5 -6 -6 -6 -6 -8 -9 -10 -13 -15 -15 -14 -14 -13 -12 -11 -10 -9

GFSMW_850_temp_384.txt.gz
Temp
5 5 5 5 5 5 5 5 4 3 3 3 2 2 1 1 1 1 0 -0 -1 -1 -2 -2 -2 -3 -3 -4 -4 -5 -5 -4 -5 -5 -5 -4 -4 -4 -3 -3 -3 -2 -2
5 5 5 5 5 5 5 4 4 3 3 2 1 1 1 0 0 -0 -1 -1 -2 -2 -2 -3 -3 -4 -4 -4 -5 -5 -5 -5 -6 -6 -6 -6 -5 -4 -4 -3 -3 -3 -3
5 5 5 5 4 5 5 4 3 3 2 2 1 1 1 0 -0 -1 -1 -1 -2 -2 -3 -3 -4 -4 -4 -5 -5 -5 -6 -6 -6 -6 -6 -6 -6 -6 -5 -5 -4 -4 -4
5 5 5 5 4 5 4 3 3 2 2 1 1 -0 -1 -1 -1 -2 -2 -2 -3 -3 -3 -4 -4 -4 -5 -5 -5 -5 -6 -6 -6 -6 -6 -6 -6 -7 -7 -6 -6 -5 -5
6 6 5 5 5 5 5 3 3 2 2 1 0 -0 -1 -1 -2 -2 -2 -2 -3 -3 -3 -4 -4 -4 -5 -5 -5 -5 -6 -6 -6 -6 -6 -7 -7 -7 -7 -8 -7 -7 -6
6 6 5 5 5 5 5 3 2 2 1 1 0 -1 -1 -2 -2 -2 -2 -3 -3 -3 -4 -4 -4 -5 -5 -5 -5 -5 -6 -6 -6 -6 -7 -7 -8 -8 -8 -8 -8 -7 -7
6 6 5 5 6 5 4 3 2 2 1 1 -0 -1 -1 -1 -2 -2 -3 -3 -3 -4 -4 -4 -4 -5 -5 -5 -5 -5 -6 -6 -6 -7 -7 -9 -9 -9 -8 -8 -8 -7 -7
6 6 5 6 6 5 4 3 2 1 1 0 -0 -1 -1 -2 -2 -2 -3 -3 -4 -4 -4 -4 -4 -5 -5 -5 -5 -6 -6 -6 -7 -7 -8 -9 -9 -9 -9 -9 -8 -7 -7
6 6 5 6 6 5 4 3 2 1 0 -0 -0 -1 -1 -2 -2 -3 -3 -3 -4 -4 -4 -4 -4 -5 -5 -5 -6 -6 -7 -7 -7 -7 -8 -9 -9 -9 -9 -9 -8 -8 -7
6 6 6 6 5 4 3 2 2 1 -0 -0 -1 -1 -1 -2 -3 -3 -3 -3 -4 -4 -4 -4 -5 -5 -5 -6 -6 -7 -7 -7 -7 -8 -9 -9 -9 -9 -8 -8 -8 -8 -8
6 6 7 5 5 3 3 2 1 0 -0 -0 -1 -1 -2 -2 -3 -3 -3 -4 -4 -4 -4 -5 -5 -5 -6 -6 -7 -7 -8 -8 -8 -9 -9 -9 -9 -9 -9 -8 -8 -8 -8
7 7 6 5 4 3 3 2 1 -0 -0 -1 -1 -2 -2 -2 -3 -3 -3 -3 -3 -4 -4 -4 -5 -5 -6 -7 -8 -9 -10 -10 -10 -10 -10 -9 -10 -9 -9 -9 -8 -8 -8
6 6 6 5 4 3 2 1 0 -0 -1 -1 -1 -2 -2 -2 -3 -3 -3 -3 -3 -3 -3 -4 -5 -5 -6 -8 -9 -10 -10 -10 -11 -11 -11 -10 -10 -10 -9 -9 -9 -8 -8
6 6 5 4 3 2 1 1 0 -0 -1 -1 -1 -2 -2 -2 -3 -2 -2 -2 -2 -2 -3 -3 -4 -5 -6 -9 -10 -10 -10 -10 -11 -11 -11 -11 -10 -9 -9 -9 -9 -9 -8
6 5 5 4 3 2 1 1 0 -0 -1 -1 -1 -2 -2 -2 -1 -1 -1 -1 -2 -2 -2 -3 -3 -4 -6 -10 -10 -10 -10 -11 -11 -11 -11 -11 -11 -11 -11 -10 -10 -10 -10
6 5 4 3 2 2 1 0 0 -0 -1 -1 -1 -2 -1 -1 -1 -1 -1 -2 -2 -2 -2 -3 -3 -4 -5 -8 -10 -11 -10 -11 -11 -12 -11 -11 -11 -11 -11 -10 -10 -10 -10
5 5 4 3 2 1 1 0 0 -0 -0 -1 -1 -1 -1 -1 -1 -1 -1 -2 -2 -2 -3 -3 -3 -4 -5 -8 -9 -10 -11 -12 -12 -11 -12 -12 -11 -11 -11 -10 -10 -10 -10
5 4 4 3 2 1 1 0 0 0 -0 -0 -1 -1 -1 -1 -1 -2 -2 -2 -3 -3 -3 -4 -4 -5 -7 -9 -10 -11 -11 -12 -12 -12 -12 -12 -12 -11 -11 -10 -11 -11 -11
5 5 4 2 1 1 1 1 0 0 -0 -0 -0 -0 -1 -1 -2 -2 -2 -2 -3 -3 -3 -4 -4 -5 -6 -9 -11 -11 -12 -12 -12 -12 -13 -13 -12 -11 -11 -10 -10 -10 -11
6 4 3 2 2 1 1 1 1 0 -0 -0 -0 -1 -2 -2 -2 -2 -3 -3 -3 -3 -3 -3 -4 -4 -5 -7 -11 -11 -12 -13 -13 -13 -13 -13 -13 -12 -11 -10 -10 -10 -10
5 4 3 2 2 1 1 1 1 0 -0 -0 -1 -1 -2 -2 -2 -3 -3 -3 -3 -3 -3 -3 -4 -4 -6 -7 -11 -12 -12 -13 -14 -14 -14 -14 -13 -12 -11 -11 -10 -10 -9
4 3 2 2 2 1 1 1 1 -0 -0 -1 -1 -1 -2 -2 -3 -3 -3 -3 -3 -3 -4 -4 -4 -5 -6 -8 -10 -12 -12 -13 -14 -14 -14 -14 -13 -12 -11 -10 -10 -9 -8
4 3 3 2 1 1 1 1 0 -0 -0 -1 -1 -1 -1 -2 -2 -2 -2 -3 -3 -4 -5 -5 -5 -6 -7 -7 -8 -10 -10 -11 -12 -14 -14 -13 -12 -11 -10 -10 -9 -9 -8
3 2 3 2 2 1 1 1 0 -0 -0 -0 -1 -1 -1 -2 -2 -2 -2 -3 -3 -4 -5 -5 -5 -5 -7 -7 -8 -9 -10 -10 -10 -12 -13 -12 -12 -11 -11 -10 -9 -9 -8
3 3 3 3 2 2 1 1 0 -0 -0 0 -0 -1 -1 -1 -2 -2 -3 -3 -4 -5 -5 -6 -6 -6 -6 -7 -7 -8 -10 -11 -11 -12 -12 -11 -11 -11 -10 -10 -9 -9 -8
3 3 3 3 3 2 1 1 1 1 0 0 0 -0 -1 -1 -1 -2 -3 -3 -4 -4 -5 -5 -5 -5 -6 -6 -6 -7 -8 -9 -9 -11 -13 -13 -13 -12 -12 -11 -10 -9 -8